N0JVW-13 Weather Reports


Display with metric or nautical units.
time (UTC)temp
F
wind
direction
speed
MPH
gust
MPH
rain 1hr
in
rain 24hr
in
rain mn
in
humidity
%
barometer
mb
20260904013504 87 143 0.0 0.0 0.00 0.00 0.00 56 1008.6
20260904013112 87 143 0.0 0.0 0.00 0.00 0.00 56 1008.5
20260904012528 87 143 0.0 0.0 0.00 0.00 0.00 55 1008.5
20260904012007 88 143 0.0 0.0 0.00 0.00 0.00 55 1008.4
20260904011621 88 143 0.0 0.0 0.00 0.00 0.00 54 1008.4
20260904011029 88 143 0.0 0.0 0.00 0.00 0.00 54 1008.4
20260904010508 88 143 0.0 0.0 0.00 0.00 0.00 54 1008.4
20260904010053 89 143 0.0 0.0 0.00 0.00 0.00 53 1008.3
20260904005532 89 143 0.0 0.0 0.00 0.00 0.00 53 1008.3
20260904005010 89 143 0.0 0.0 0.00 0.00 0.00 52 1008.3
20260904004554 90 143 0.0 0.0 0.00 0.00 0.00 52 1008.3
20260904004036 90 143 0.0 0.0 0.00 0.00 0.00 51 1008.3
20260904003513 90 143 0.0 0.0 0.00 0.00 0.00 50 1008.3
20260904003056 91 143 0.0 1.0 0.00 0.00 0.00 50 1008.4
20260904002533 91 129 0.0 1.0 0.00 0.00 0.00 49 1008.3
20260904002013 91 143 0.0 1.0 0.00 0.00 0.00 49 1008.4
20260904001555 92 143 0.0 1.0 0.00 0.00 0.00 49 1008.4
20260904001034 92 143 0.0 1.0 0.00 0.00 0.00 48 1008.4
20260904000514 92 122 0.0 1.0 0.00 0.00 0.00 48 1008.5
20260904000057 92 122 0.0 3.0 0.00 0.00 0.00 48 1008.5
20260903235537 93 137 0.0 3.0 0.00 0.00 0.00 46 1008.4
20260903235016 93 153 0.0 3.0 0.00 0.00 0.00 46 1008.4
20260903234600 93 129 0.0 1.0 0.00 0.00 0.00 47 1008.4
20260903234040 93 137 0.0 2.0 0.00 0.00 0.00 46 1008.4
20260903233519 93 151 0.0 2.0 0.00 0.00 0.00 46 1008.5
20260903233107 93 156 0.0 2.0 0.00 0.00 0.00 46 1008.4
20260903232541 93 139 0.0 3.0 0.00 0.00 0.00 46 1008.4
20260903232021 94 130 1.0 3.0 0.00 0.00 0.00 45 1008.4
20260903231501 94 114 1.0 3.0 0.00 0.00 0.00 45 1008.4
20260903231045 94 122 1.0 3.0 0.00 0.00 0.00 45 1008.4
20260903230527 94 136 0.0 3.0 0.00 0.00 0.00 45 1008.4
20260903230005 94 160 1.0 3.0 0.00 0.00 0.00 45 1008.5
20260903225549 94 135 0.0 3.0 0.00 0.00 0.00 45 1008.5
20260903225028 94 149 0.0 4.0 0.00 0.00 0.00 46 1008.5
20260903224508 94 158 0.0 4.0 0.00 0.00 0.00 46 1008.6
20260903224051 94 105 0.0 3.0 0.00 0.00 0.00 46 1008.5
20260903223531 94 157 0.0 3.0 0.00 0.00 0.00 46 1008.6
20260903223012 94 174 0.0 3.0 0.00 0.00 0.00 45 1008.6
20260903222556 94 150 0.0 3.0 0.00 0.00 0.00 45 1008.7
20260903222035 94 143 1.0 3.0 0.00 0.00 0.00 45 1008.7
20260903221514 94 158 0.0 2.0 0.00 0.00 0.00 45 1008.6
20260903221058 94 138 0.0 3.0 0.00 0.00 0.00 45 1008.6
20260903220537 94 156 0.0 3.0 0.00 0.00 0.00 45 1008.6
20260903220021 94 156 0.0 2.0 0.00 0.00 0.00 45 1008.7
20260903215601 94 132 0.0 3.0 0.00 0.00 0.00 45 1008.7
20260903215041 94 117 0.0 4.0 0.00 0.00 0.00 45 1008.8
20260903214519 94 144 1.0 3.0 0.00 0.00 0.00 44 1008.7
20260903214104 94 159 0.0 4.0 0.00 0.00 0.00 44 1008.8
20260903213542 95 159 0.0 4.0 0.00 0.00 0.00 44 1008.8
20260903213021 94 128 0.0 1.0 0.00 0.00 0.00 46 1008.8
20260903212501 95 127 0.0 2.0 0.00 0.00 0.00 45 1008.8
20260903212045 95 149 0.0 4.0 0.00 0.00 0.00 44 1008.9
20260903211533 95 154 1.0 4.0 0.00 0.00 0.00 44 1008.9
20260903211002 95 155 1.0 3.0 0.00 0.00 0.00 45 1008.9
20260903210545 95 165 0.0 2.0 0.00 0.00 0.00 45 1008.9
20260903210025 94 108 0.0 2.0 0.00 0.00 0.00 45 1009.0
20260903205507 94 145 0.0 3.0 0.00 0.00 0.00 45 1009.0
20260903205048 94 179 0.0 5.0 0.00 0.00 0.00 45 1009.0
20260903204528 95 163 1.0 5.0 0.00 0.00 0.00 44 1009.0
20260903204006 95 134 1.0 4.0 0.00 0.00 0.00 46 1009.1
20260903203550 94 146 0.0 4.0 0.00 0.00 0.00 45 1009.1
20260903203038 94 156 0.0 4.0 0.00 0.00 0.00 46 1009.2
20260903202518 94 159 0.0 3.0 0.00 0.00 0.00 47 1009.2
20260903202101 94 131 0.0 3.0 0.00 0.00 0.00 46 1009.2
20260903201541 95 155 1.0 4.0 0.00 0.00 0.00 46 1009.3
20260903201019 95 169 1.0 5.0 0.00 0.00 0.00 46 1009.3
20260903200559 95 170 1.0 5.0 0.00 0.00 0.00 46 1009.3
20260903200040 94 143 0.0 6.0 0.00 0.00 0.00 46 1009.4
20260903195518 94 167 2.0 5.0 0.00 0.00 0.00 46 1009.5
20260903195101 95 163 1.0 4.0 0.00 0.00 0.00 46 1009.5
20260903194541 94 153 0.0 5.0 0.00 0.00 0.00 46 1009.5
20260903194021 94 117 0.0 5.0 0.00 0.00 0.00 47 1009.6
20260903193604 95 161 1.0 5.0 0.00 0.00 0.00 46 1009.7
20260903193044 94 176 0.0 4.0 0.00 0.00 0.00 48 1009.6
20260903192524 94 155 0.0 5.0 0.00 0.00 0.00 48 1009.7
20260903192001 94 134 1.0 4.0 0.00 0.00 0.00 47 1009.8
20260903191545 94 181 0.0 4.0 0.00 0.00 0.00 47 1009.8
20260903191025 94 165 1.0 4.0 0.00 0.00 0.00 47 1009.9
20260903190505 94 88 1.0 4.0 0.00 0.00 0.00 47 1010.0
20260903190045 94 167 1.0 6.0 0.00 0.00 0.00 49 1010.0
20260903185524 94 129 0.0 6.0 0.00 0.00 0.00 49 1010.0
20260903185004 93 135 0.0 6.0 0.00 0.00 0.00 50 1010.1
20260903184550 93 162 0.0 6.0 0.00 0.00 0.00 50 1010.2
20260903184029 93 205 2.0 4.0 0.00 0.00 0.00 48 1010.1
20260903183514 93 129 1.0 4.0 0.00 0.00 0.00 49 1010.2
20260903183055 93 125 1.0 4.0 0.00 0.00 0.00 50 1010.2
20260903182529 93 170 0.0 4.0 0.00 0.00 0.00 51 1010.3
20260903182009 93 160 1.0 3.0 0.00 0.00 0.00 50 1010.4
20260903181552 93 147 0.0 3.0 0.00 0.00 0.00 50 1010.4
20260903181031 93 134 0.0 3.0 0.00 0.00 0.00 52 1010.6
20260903180511 92 117 0.0 3.0 0.00 0.00 0.00 51 1010.7
20260903180054 92 117 0.0 4.0 0.00 0.00 0.00 52 1010.8
20260903175535 92 173 1.0 4.0 0.00 0.00 0.00 52 1010.8
20260903175012 92 187 0.0 4.0 0.00 0.00 0.00 51 1011.0
20260903174556 92 163 1.0 4.0 0.00 0.00 0.00 52 1011.0
20260903174036 92 154 1.0 4.0 0.00 0.00 0.00 52 1011.0
20260903173532 91 176 1.0 5.0 0.00 0.00 0.00 52 1011.0
20260903173059 91 169 1.0 5.0 0.00 0.00 0.00 52 1011.1
20260903172535 91 161 1.0 5.0 0.00 0.00 0.00 53 1011.2
20260903172014 91 156 1.0 4.0 0.00 0.00 0.00 54 1011.2
20260903171611 91 166 0.0 4.0 0.00 0.00 0.00 57 1011.2
20260903171037 91 174 1.0 4.0 0.00 0.00 0.00 55 1011.3
20260903170517 90 153 1.0 3.0 0.00 0.00 0.00 55 1011.3
20260903165541 90 149 0.0 4.0 0.00 0.00 0.00 56 1011.4
20260903165018 90 157 1.0 4.0 0.00 0.00 0.00 57 1011.4
20260903164602 89 120 0.0 3.0 0.00 0.00 0.00 58 1011.5
20260903164042 89 158 0.0 3.0 0.00 0.00 0.00 58 1011.5
20260903163522 89 196 0.0 3.0 0.00 0.00 0.00 58 1011.5
20260903163002 89 153 0.0 3.0 0.00 0.00 0.00 59 1011.7
20260903162544 89 139 0.0 3.0 0.00 0.00 0.00 59 1011.6
20260903162024 88 164 0.0 3.0 0.00 0.00 0.00 60 1011.6
20260903161502 88 179 0.0 3.0 0.00 0.00 0.00 62 1011.7
20260903161045 88 156 1.0 3.0 0.00 0.00 0.00 62 1011.7
20260903160525 87 170 0.0 3.0 0.00 0.00 0.00 62 1011.7
20260903160005 87 180 0.0 4.0 0.00 0.00 0.00 61 1011.8
20260903155548 87 136 0.0 4.0 0.00 0.00 0.00 62 1011.8
20260903155035 87 137 0.0 4.0 0.00 0.00 0.00 63 1011.7
20260903154508 86 134 0.0 4.0 0.00 0.00 0.00 64 1011.7
20260903154052 86 135 0.0 1.0 0.00 0.00 0.00 66 1011.7
20260903153530 86 136 0.0 2.0 0.00 0.00 0.00 65 1011.7
20260903153009 86 157 0.0 2.0 0.00 0.00 0.00 65 1011.7
20260903152553 85 162 0.0 3.0 0.00 0.00 0.00 66 1011.7
20260903152032 85 166 1.0 3.0 0.00 0.00 0.00 67 1011.8
20260903151512 84 121 0.0 1.0 0.00 0.00 0.00 68 1011.8
20260903151055 84 113 0.0 1.0 0.00 0.00 0.00 68 1011.8
20260903150535 84 165 0.0 1.0 0.00 0.00 0.00 69 1011.8
20260903150020 83 133 0.0 2.0 0.00 0.00 0.00 69 1011.8
20260903145601 83 162 0.0 3.0 0.00 0.00 0.00 69 1011.9
20260903145038 83 160 0.0 4.0 0.00 0.00 0.00 69 1011.9
20260903144518 83 196 1.0 4.0 0.00 0.00 0.00 70 1011.8
20260903144106 82 153 1.0 4.0 0.00 0.00 0.00 70 1011.9
20260903143541 82 159 1.0 4.0 0.00 0.00 0.00 70 1011.9
20260903143032 82 159 0.0 2.0 0.00 0.00 0.00 71 1012.0
20260903142605 81 155 0.0 4.0 0.00 0.00 0.00 71 1012.0
20260903142043 81 157 0.0 4.0 0.00 0.00 0.00 71 1012.0
20260903141523 81 146 0.0 4.0 0.00 0.00 0.00 70 1012.1
20260903141005 80 127 1.0 4.0 0.00 0.00 0.00 71 1012.1
20260903140546 80 171 0.0 4.0 0.00 0.00 0.00 70 1012.1
20260903140025 80 164 0.0 4.0 0.00 0.00 0.00 70 1012.2
20260903135509 79 154 1.0 4.0 0.00 0.00 0.00 69 1012.2
20260903135049 79 124 0.0 0.0 0.00 0.00 0.00 68 1012.2
20260903134527 78 162 0.0 0.0 0.00 0.00 0.00 68 1012.1
20260903134006 78 137 0.0 0.0 0.00 0.00 0.00 68 1012.1
20260903133550 78 162 0.0 0.0 0.00 0.00 0.00 68 1012.1
20260903133030 77 153 0.0 0.0 0.00 0.00 0.00 66 1012.1
20260903132509 77 162 0.0 1.0 0.00 0.00 0.00 66 1012.1
20260903132052 77 162 0.0 1.0 0.00 0.00 0.00 65 1012.1
20260903131528 76 131 0.0 1.0 0.00 0.00 0.00 63 1012.1
20260903131008 76 119 0.0 1.0 0.00 0.00 0.00 62 1012.0
20260903130551 76 119 0.0 1.0 0.00 0.00 0.00 62 1012.0
20260903130030 76 146 0.0 0.0 0.00 0.00 0.00 61 1011.9
20260903125510 75 146 0.0 0.0 0.00 0.00 0.00 61 1011.9
20260903125053 75 146 0.0 0.0 0.00 0.00 0.00 61 1011.9
20260903124532 75 146 0.0 0.0 0.00 0.00 0.00 60 1011.8
20260903124014 75 148 0.0 1.0 0.00 0.00 0.00 60 1011.8
20260903123601 75 148 0.0 1.0 0.00 0.00 0.00 60 1011.8
20260903123036 75 150 0.0 1.0 0.00 0.00 0.00 62 1011.8
20260903122515 75 146 0.0 0.0 0.00 0.00 0.00 62 1011.8
20260903122056 74 156 0.0 0.0 0.00 0.00 0.00 61 1011.7
20260903121535 74 156 0.0 0.0 0.00 0.00 0.00 63 1011.7
20260903121015 74 156 0.0 1.0 0.00 0.00 0.00 63 1011.6
20260903120601 74 122 0.0 1.0 0.00 0.00 0.00 63 1011.5
20260903120046 74 157 0.0 0.0 0.00 0.00 0.00 63 1011.5
20260903115520 74 156 0.0 0.0 0.00 0.00 0.00 63 1011.5
20260903115101 75 156 0.0 1.0 0.00 0.00 0.00 63 1011.4
20260903114540 75 156 0.0 1.0 0.00 0.00 0.00 63 1011.4
20260903114019 75 144 0.0 0.0 0.00 0.00 0.00 65 1011.2
20260903113605 75 152 0.0 0.0 0.00 0.00 0.00 67 1011.2
20260903113147 75 151 0.0 0.0 0.00 0.00 0.00 68 1011.2
20260903112530 75 151 0.0 0.0 0.00 0.00 0.00 68 1011.2
20260903112008 75 151 0.0 0.0 0.00 0.00 0.00 69 1011.2
20260903111552 75 152 0.0 0.0 0.00 0.00 0.00 69 1011.1
20260903111034 76 152 0.0 0.0 0.00 0.00 0.00 69 1011.1
20260903110508 76 152 0.0 0.0 0.00 0.00 0.00 69 1011.1
20260903110051 76 152 0.0 0.0 0.00 0.00 0.00 69 1011.1
20260903105530 76 151 0.0 0.0 0.00 0.00 0.00 70 1011.1
20260903105010 76 152 0.0 0.0 0.00 0.00 0.00 70 1011.1
20260903104554 76 136 0.0 0.0 0.00 0.00 0.00 70 1011.0
20260903104035 76 136 0.0 0.0 0.00 0.00 0.00 71 1011.0
20260903103513 76 136 0.0 0.0 0.00 0.00 0.00 71 1010.8
20260903103057 76 136 0.0 0.0 0.00 0.00 0.00 71 1010.8
20260903102537 76 136 0.0 0.0 0.00 0.00 0.00 71 1010.8
20260903102020 76 123 0.0 0.0 0.00 0.00 0.00 71 1010.7
20260903101602 77 123 0.0 0.0 0.00 0.00 0.00 71 1010.7
20260903101037 77 141 0.0 0.0 0.00 0.00 0.00 71 1010.7
20260903100518 77 136 0.0 0.0 0.00 0.00 0.00 71 1010.7
20260903095539 77 155 0.0 0.0 0.00 0.00 0.00 72 1010.7
20260903095019 77 147 0.0 0.0 0.00 0.00 0.00 72 1010.7
20260903094652 77 143 0.0 0.0 0.00 0.00 0.00 72 1010.7
20260903094042 77 135 0.0 0.0 0.00 0.00 0.00 72 1010.8
20260903093522 77 134 0.0 0.0 0.00 0.00 0.00 72 1010.8
20260903093001 77 134 0.0 0.0 0.00 0.00 0.00 72 1010.7
20260903092547 77 134 0.0 0.0 0.00 0.00 0.00 72 1010.7
20260903092025 77 131 0.0 0.0 0.00 0.00 0.00 72 1010.7
20260903091505 77 134 0.0 0.0 0.00 0.00 0.00 72 1010.7
20260903091047 77 134 0.0 0.0 0.00 0.00 0.00 72 1010.7
20260903090531 77 134 0.0 0.0 0.00 0.00 0.00 72 1010.7
20260903090007 77 134 0.0 0.0 0.00 0.00 0.00 72 1010.8
20260903085549 77 134 0.0 0.0 0.00 0.00 0.00 72 1010.7
20260903085029 77 134 0.0 0.0 0.00 0.00 0.00 72 1010.7
20260903084523 77 134 0.0 0.0 0.00 0.00 0.00 71 1010.6
20260903084052 77 134 0.0 0.0 0.00 0.00 0.00 71 1010.6
20260903083532 78 134 0.0 0.0 0.00 0.00 0.00 71 1010.7
20260903083019 78 134 0.0 0.0 0.00 0.00 0.00 71 1010.7
20260903082554 78 134 0.0 0.0 0.00 0.00 0.00 71 1010.6
20260903082034 78 134 0.0 0.0 0.00 0.00 0.00 71 1010.6
20260903081514 78 134 0.0 0.0 0.00 0.00 0.00 71 1010.6
20260903081057 78 134 0.0 0.0 0.00 0.00 0.00 71 1010.5
20260903080537 78 134 0.0 0.0 0.00 0.00 0.00 70 1010.6
20260903080035 79 148 0.0 0.0 0.00 0.00 0.00 70 1010.6
20260903075602 79 148 0.0 0.0 0.00 0.00 0.00 70 1010.5
20260903075039 79 148 0.0 0.0 0.00 0.00 0.00 69 1010.5
20260903074519 79 148 0.0 0.0 0.00 0.00 0.00 69 1010.5
20260903074106 79 148 0.0 0.0 0.00 0.00 0.00 68 1010.5
20260903073545 79 148 0.0 0.0 0.00 0.00 0.00 68 1010.5
20260903073024 80 153 0.0 0.0 0.00 0.00 0.00 68 1010.5
20260903072501 80 153 0.0 0.0 0.00 0.00 0.00 67 1010.5
20260903072046 80 153 0.0 0.0 0.00 0.00 0.00 67 1010.5
20260903071525 80 153 0.0 0.0 0.00 0.00 0.00 67 1010.5
20260903071007 80 153 0.0 0.0 0.00 0.00 0.00 67 1010.6
20260903070550 80 153 0.0 0.0 0.00 0.00 0.00 66 1010.5
20260903070026 81 153 0.0 0.0 0.00 0.00 0.00 66 1010.6
20260903065506 81 153 0.0 0.0 0.00 0.00 0.00 65 1010.7
20260903065049 81 153 0.0 0.0 0.00 0.00 0.00 65 1010.6
20260903064529 81 153 0.0 0.0 0.00 0.00 0.00 65 1010.6
20260903064008 81 153 0.0 0.0 0.00 0.00 0.00 65 1010.5
20260903063551 81 153 0.0 0.0 0.00 0.00 0.00 65 1010.5
20260903063031 81 153 0.0 0.0 0.00 0.00 0.00 64 1010.5
20260903062511 81 153 0.0 0.0 0.00 0.00 0.00 64 1010.6
20260903062055 81 153 0.0 0.0 0.00 0.00 0.00 64 1010.5
20260903061533 81 153 0.0 0.0 0.00 0.00 0.00 64 1010.5
20260903061016 81 153 0.0 0.0 0.00 0.00 0.00 64 1010.5
20260903060556 81 153 0.0 0.0 0.00 0.00 0.00 64 1010.5
20260903060037 82 153 0.0 0.0 0.00 0.00 0.00 64 1010.5
20260903055517 82 153 0.0 0.0 0.00 0.00 0.00 64 1010.5
20260903055056 82 153 0.0 0.0 0.00 0.00 0.00 64 1010.5
20260903054536 82 153 0.0 0.0 0.00 0.00 0.00 64 1010.5
20260903054015 82 153 0.0 0.0 0.00 0.00 0.00 64 1010.5
20260903053602 82 153 0.0 0.0 0.00 0.00 0.00 64 1010.5
20260903053040 82 153 0.0 0.0 0.00 0.00 0.00 63 1010.5
20260903052518 82 153 0.0 0.0 0.00 0.00 0.00 63 1010.5
20260903052101 82 153 0.0 0.0 0.00 0.00 0.00 63 1010.5
20260903051546 82 153 0.0 0.0 0.00 0.00 0.00 63 1010.5
20260903051020 82 153 0.0 0.0 0.00 0.00 0.00 63 1010.5
20260903050603 82 153 0.0 0.0 0.00 0.00 0.00 63 1010.5
20260903050043 82 153 0.0 0.0 0.00 0.00 0.00 63 1010.5
20260903045524 83 153 0.0 0.0 0.00 0.00 0.00 63 1010.5
20260903045003 83 153 0.0 0.0 0.00 0.00 0.00 62 1010.5
20260903044547 83 153 0.0 0.0 0.00 0.00 0.00 62 1010.4
20260903044026 83 153 0.0 0.0 0.00 0.00 0.00 62 1010.5
20260903043506 83 153 0.0 0.0 0.00 0.00 0.00 62 1010.5
20260903043048 83 153 0.0 0.0 0.00 0.00 0.00 62 1010.5
20260903042533 83 153 0.0 0.0 0.00 0.00 0.00 62 1010.5
20260903042009 83 153 0.0 0.0 0.00 0.00 0.00 62 1010.4
20260903041607 83 153 0.0 0.0 0.00 0.00 0.00 61 1010.5
20260903041033 83 153 0.0 0.0 0.00 0.00 0.00 61 1010.5
20260903040510 83 153 0.0 0.0 0.00 0.00 0.00 61 1010.6
20260903040108 84 153 0.0 0.0 0.00 0.00 0.00 61 1010.7
20260903035537 84 153 0.0 0.0 0.00 0.00 0.00 61 1010.6
20260903035012 84 153 0.0 0.0 0.00 0.00 0.00 60 1010.6
20260903034559 84 153 0.0 0.0 0.00 0.00 0.00 60 1010.6
20260903034036 84 153 0.0 0.0 0.00 0.00 0.00 60 1010.6
20260903033514 84 153 0.0 0.0 0.00 0.00 0.00 60 1010.6
20260903033058 84 153 0.0 0.0 0.00 0.00 0.00 60 1010.6
20260903032537 84 153 0.0 0.0 0.00 0.00 0.00 59 1010.6
20260903032017 85 153 0.0 0.0 0.00 0.00 0.00 59 1010.6
20260903031602 85 153 0.0 0.0 0.00 0.00 0.00 59 1010.5
20260903031043 85 153 0.0 0.0 0.00 0.00 0.00 59 1010.5
20260903030520 85 153 0.0 0.0 0.00 0.00 0.00 59 1010.6
20260903030106 85 153 0.0 0.0 0.00 0.00 0.00 59 1010.6
20260903025543 85 153 0.0 0.0 0.00 0.00 0.00 59 1010.6
20260903025021 85 153 0.0 0.0 0.00 0.00 0.00 58 1010.5
20260903024502 85 153 0.0 0.0 0.00 0.00 0.00 58 1010.6
20260903024044 85 153 0.0 0.0 0.00 0.00 0.00 58 1010.5
20260903023524 85 153 0.0 0.0 0.00 0.00 0.00 57 1010.4
20260903023006 85 153 0.0 0.0 0.00 0.00 0.00 57 1010.5
20260903022550 86 153 0.0 0.0 0.00 0.00 0.00 58 1010.5
20260903022026 86 153 0.0 0.0 0.00 0.00 0.00 57 1010.4
20260903021507 86 153 0.0 0.0 0.00 0.00 0.00 57 1010.3
20260903021051 86 153 0.0 0.0 0.00 0.00 0.00 57 1010.3
20260903020530 86 153 0.0 0.0 0.00 0.00 0.00 56 1010.3
20260903020010 86 153 0.0 0.0 0.00 0.00 0.00 56 1010.2
20260903015555 87 153 0.0 0.0 0.00 0.00 0.00 56 1010.1
20260903015034 87 153 0.0 0.0 0.00 0.00 0.00 56 1010.0
20260903014512 87 153 0.0 0.0 0.00 0.00 0.00 56 1009.9
20260903014056 87 153 0.0 0.0 0.00 0.00 0.00 56 1009.8